Skip Page Navigation
NASA JPL Caltech
NASA Logo - Jet Propulsion Laboratory + View the NASA Portal
+ Center for Near-Earth Object Studies
JPL Home Earth Solar System Stars & Galaxies Technology
JPL Solar System Dynamics
BODIES ORBITS EPHEMERIDES TOOLS PHYSICAL DATA DISCOVERY FAQ SITE MAP
IMPORTANT: The SSD Announcement email list is now available. Major changes are coming in the near future, including possible hostname and/or URL changes. To be notified of such changes, subscribe to this email list.

Please visit this page for more details.


JPL Small-Body Database Browser
Search: [ help ]  
137032 (1998 UO1)
Classification: Apollo [NEO]          SPK-ID: 2137032
Ephemeris | Orbit Diagram | Orbital Elements | Mission Design | Physical Parameters | Discovery Circumstances | Close-Approach Data ]

[ hide orbit diagram ]
Orbit Diagram
[ switch to new HTML5 viewer ]

Note: This Java-based orbit viewer will eventually be retired.

Note: Make sure you have Java enabled on your browser to see the applet. This applet is provided as a 3D orbit visualization tool. The applet was implemented using two-body methods, and hence should not be used for determining accurate long-term trajectories (over several years or decades) or planetary encounter circumstances. For accurate long-term ephemerides, please instead use our Horizons system.

Note: If the applet is not working, here are some notes that might help.
Orbit Viewer

Additional Notes: the orbits shown in the applet are color coded. The planets are white lines, and the asteroid/comet is a blue line. The bright white line indicates the portion of the orbit that is above the ecliptic plane, and the darker portion is below the ecliptic plane. Likewise for the asteroid/comet orbit, the light blue indicates the portion above the ecliptic plane, and the dark blue the portion below the ecliptic plane.

Orbit Viewer applet originally written and kindly provided by Osamu Ajiki (AstroArts), and further modified by Ron Baalke (JPL).


Orbital Elements at Epoch 2459000.5 (2020-May-31.0) TDB
Reference: JPL 221 (heliocentric ecliptic J2000)
 Element Value Uncertainty (1-sigma)   Units 
e .7632665110526462 6.3746e-08  
a 1.595632976897975 2.326e-09 au
q .3777397617005099 1.0164e-07 au
i 25.49793909093639 1.1579e-05 deg
node 358.4537967814376 4.3966e-06 deg
peri 252.4800408111132 1.239e-05 deg
M 307.9103330457167 5.3124e-06 deg
tp 2459107.023888591055
(2020-Sep-14.52388859)
1.109e-05 TDB
period 736.2035915191511
2.02
1.6098e-06
4.407e-09
d
yr
n .4889951694709101 1.0693e-09 deg/d
Q 2.81352619209544 4.1014e-09 au
  Orbit Determination Parameters
   # obs. used (total)      1383  
   # delay obs. used      5  
   # Doppler obs. used      0  
   data-arc span      9547 days (26.14 yr)  
   first obs. used      1992-10-20  
   last obs. used      2018-12-10  
   planetary ephem.      DE431  
   SB-pert. ephem.      SB431-N16  
   condition code      0  
   norm. resid. RMS      .36353  
   source      ORB  
   producer      Otto Matic  
   solution date      2019-Dec-21 06:10:41  

Additional Information
 Earth MOID = .058197 au 
 Jupiter MOID = 2.75185 au 
 T_jup = 3.907 
[ show covariance matrix ]

Ephemeris | Orbit Diagram | Orbital Elements | Mission Design | Physical Parameters | Discovery Circumstances | Close-Approach Data ]

Physical Parameter Table
Parameter Symbol Value Units Sigma Reference Notes
absolute magnitude H 16.6   n/a MPO248169  
diameter diameter 1.055 km 0.322 urn:nasa:pds:neowise_diameters_albedos::2.0[neos] (http://adsabs.harvard.edu/abs/2014ApJ...784..110M)  
rotation period rot_per 2.925 h n/a LCDB (Rev. 2019-August); Warner et al., 2009 Result based on less than full coverage, so that the period may be wrong by 30 percent or so.
Published Reference List:
[Pravec, P.; Wolf, M.; Sarounova, L. (2004) http://www.asu.cas.cz/~ppravec/neo.htm]
[Wolters, S.D.; Green, S.F.; McBride, N.; Davies, J.K. (2008) Icarus 193, 535-552.]
[Pravec, P.; Wolf, M.; Sarounova, L. (2014) http://www.asu.cas.cz/~ppravec/neo.htm]
[Warner, B.D. (2015) Minor Planet Bull. 42, 115-127.]
[Warner, B.D. (2017) Minor Planet Bull. 44, 98-107.]
[Skiff, B.A.; McLelland, K.P.; Sanborn, J.J.; Pravec, P.; Koehn, B.W. (2019) Minor Plantet Bull. 46, 238-265.]
geometric albedo albedo 0.183   0.325 urn:nasa:pds:neowise_diameters_albedos::2.0[neos] (http://adsabs.harvard.edu/abs/2014ApJ...784..110M)  

137032 (1998 UO1)          Discovered 1998-Oct-19 by LINEAR at Socorro
Reference: 20061205/Numbers.arcLast Updated: 2006-12-13

